RH
27 27 28 29 31 33 35 36 36 35 34 34 35 36 37 39 41 43 46 50 53 56 58 60 65 70 77 79 80 79 79 79 76 69 59 49 43 40 42 52 64 76 83 83 83 83 83 83 83 83 83 83 83 82 82 81 81 79 78 75 72 68 63 59 57 56 57 59 61 63 66 67 69 71 72 73 74 75 75 75 74 73 72 71 70 69
29 29 29 30 32 34 37 37 36 35 33 33 35 38 43 46 49 51 53 55 56 57 58 60 64 68 73 76 78 80 79 80 80 79 76 70 66 65 68 75 80 83 83 83 83 83 83 83 83 83 83 83 82 82 82 81 80 79 77 74 70 66 61 57 55 54 55 56 58 60 62 64 66 68 70 72 74 75 76 76 75 74 73 71 70 68
30 30 30 31 33 36 38 39 38 35 33 34 37 41 47 51 55 58 59 59 59 59 59 60 62 64 65 68 73 77 79 80 81 81 81 81 81 82 82 83 83 82 83 83 83 83 83 83 83 83 83 82 82 82 81 80 79 77 75 71 67 62 58 55 54 53 53 55 56 58 59 60 62 64 67 69 71 73 75 75 75 74 73 72 71 69
31 31 31 32 34 37 40 41 40 37 35 35 38 42 48 53 57 60 62 61 60 59 59 58 57 57 56 59 63 69 75 79 80 81 82 82 82 82 83 83 83 83 83 83 83 82 82 82 82 82 82 81 81 80 79 78 76 74 71 67 62 58 54 53 52 51 52 53 55 57 58 60 62 63 65 68 69 71 72 73 72 72 71 69 68 66
31 31 30 31 33 36 40 42 42 41 38 37 38 41 45 50 53 56 58 57 57 55 53 51 50 49 49 51 55 60 66 71 75 78 79 80 81 81 82 82 82 82 81 81 81 80 80 80 80 79 79 79 78 77 76 75 73 70 67 62 58 54 51 49 48 48 49 50 52 55 58 61 63 65 67 68 69 70 69 68 67 66 63 61 59 57
29 29 28 29 31 35 39 43 45 45 43 41 40 40 42 44 47 48 50 50 49 48 46 45 44 43 44 46 49 53 57 61 65 68 72 74 76 77 78 79 79 78 78 78 77 77 77 76 76 76 75 75 74 73 72 70 67 64 60 56 52 49 46 44 43 43 44 46 49 52 56 60 63 67 69 69 69 68 66 63 60 57 54 51 48 46
26 26 26 27 28 31 35 40 45 48 49 47 45 43 42 42 43 43 44 44 44 43 42 41 41 41 41 42 44 47 49 52 55 58 60 63 66 69 71 72 72 73 73 72 72 72 72 71 71 70 69 68 67 66 64 61 58 54 51 48 46 44 42 40 40 40 41 43 46 49 52 56 59 62 65 66 65 64 61 58 54 50 46 43 40 38
23 23 23 24 25 27 30 34 39 45 49 51 51 49 47 46 45 45 45 44 44 43 43 42 41 40 40 40 41 42 43 44 46 47 49 51 53 55 57 59 60 62 63 64 64 64 64 63 62 61 59 58 56 55 53 51 49 47 46 45 44 43 42 42 42 42 43 44 46 47 49 51 53 55 57 58 59 58 56 54 51 48 45 42 40 38
20 21 21 22 23 23 25 27 31 35 40 45 48 50 51 51 50 50 49 48 48 47 46 45 43 42 40 40 40 40 40 41 41 42 42 43 44 45 46 48 49 51 52 53 54 54 53 53 52 51 51 50 50 50 49 49 49 48 48 48 48 49 49 50 50 51 51 52 52 52 53 53 53 54 55 56 56 57 57 57 55 54 52 51 49 48
19 19 19 20 20 21 21 22 24 26 29 33 36 40 43 45 46 47 48 48 48 47 46 46 45 43 42 42 41 41 41 41 42 42 42 42 42 42 43 43 43 44 45 46 47 47 48 48 48 48 49 49 49 49 49 49 49 49 49 49 50 50 51 52 53 54 56 56 57 57 57 57 57 58 58 59 60 61 62 63 63 63 62 61 60 59
18 18 18 19 19 19 19 20 20 21 21 23 25 27 29 31 33 35 37 38 39 40 40 40 40 40 39 39 39 40 40 41 42 42 43 43 43 43 43 44 44 44 44 45 45 45 45 44 44 43 43 42 41 40 39 38 38 37 36 36 36 36 37 38 39 41 43 44 46 47 49 50 51 52 53 54 55 56 57 58 58 58 58 58 57 57
18 18 18 18 18 18 18 19 19 19 19 19 20 21 22 22 23 24 25 26 27 28 29 29 29 29 29 29 30 31 32 32 33 34 35 35 36 37 37 38 38 38 38 37 36 35 35 33 32 31 30 28 27 26 25 24 23 22 21 21 20 20 20 21 21 22 23 25 26 28 29 31 32 34 35 36 37 37 38 38 38 39 39 39 39 39
19 18 18 18 18 18 18 18 18 18 18 18 19 19 20 20 20 20 20 20 21 21 21 21 22 22 22 22 22 22 22 23 23 23 24 24 24 24 25 25 25 25 25 25 25 25 24 24 23 23 22 21 20 20 19 19 18 18 17 17 16 16 16 16 16 15 15 15 16 16 16 17 18 18 18 19 19 19 20 20 20 20 20 20 20 20
18 18 18 17 17 17 16 16 17 17 17 17 17 17 17 17 18 18 18 19 19 19 19 19 19 19 20 20 20 20 20 20 20 20 20 20 20 20 19 20 20 20 20 20 20 20 20 20 19 19 19 19 18 18 18 18 18 18 17 17 17 17 17 17 17 17 16 16 16 15 15 15 15 15 14 14 14 14 13 13 13 13 13 13 12 12
18 18 17 17 17 16 16 16 16 16 15 15 15 15 15 15 15 16 16 16 16 16 16 17 17 17 17 17 17 17 17 17 17 17 17 17 16 16 16 16 16 16 16 16 16 16 16 16 16 16 16 16 15 15 15 15 15 15 15 16 16 16 16 16 17 17 17 17 17 17 17 16 16 16 16 16 15 15 15 15 14 14 14 14 13 13
18 17 17 17 16 16 16 15 15 15 15 15 15 14 14 14 14 14 14 14 14 14 14 14 14 14 14 14 14 14 14 14 14 14 14 14 13 13 13 13 13 13 13 13 13 13 13 13 13 13 13 13 13 13 13 13 13 13 13 13 14 14 14 15 15 15 15 15 16 16 16 16 16 16 16 16 16 16 16 16 16 16 16 16 15 15
18 17 17 17 16 16 16 16 15 15 15 15 15 15 14 14 14 14 14 14 14 13 13 13 13 13 13 13 13 13 13 14 14 14 13 13 13 13 12 12 12 12 12 12 12 12 12 12 12 12 12 12 12 12 12 12 12 12 12 13 13 13 13 13 14 14 14 14 14 15 15 15 15 16 16 16 16 16 16 16 16 16 16 16 16 16
18 18 17 17 17 17 16 16 16 16 16 16 15 15 15 15 15 14 14 14 14 14 14 14 14 14 13 13 13 13 14 14 14 14 14 14 14 13 13 13 13 13 13 13 13 12 12 12 12 12 12 12 12 12 12 12 12 12 12 12 12 12 13 13 13 13 13 14 14 14 15 15 15 15 16 16 16 16 16 16 16 16 16 16 16 16
18 18 18 18 18 17 17 17 17 16 16 16 16 16 16 15 15 15 15 15 15 15 15 14 14 14 14 14 14 14 14 14 15 15 15 15 15 14 13 13 13 13 13 13 13 13 12 12 12 12 12 11 11 11 11 11 11 11 11 12 12 12 12 12 13 13 13 14 14 14 15 15 15 16 16 16 16 17 17 17 17 17 17 16 16 16
19 19 18 18 18 18 18 17 17 17 17 17 17 16 16 16 16 16 16 16 15 15 15 15 15 15 15 15 15 15 15 15 16 16 16 16 16 15 14 14 14 14 13 13 13 13 12 12 12 12 11 11 11 11 11 11 11 11 11 11 11 11 12 12 12 12 13 13 14 14 15 15 16 16 17 17 17 17 18 18 17 17 17 17 17 16
20 20 19 19 19 19 18 18 18 18 17 17 17 17 17 17 17 17 17 16 16 16 16 16 16 16 16 16 16 16 15 16 16 17 17 17 17 16 15 14 14 14 14 13 13 13 12 12 12 12 12 11 11 11 11 11 11 11 11 11 11 11 11 11 11 11 11 12 12 13 14 14 15 16 16 17 18 18 18 18 18 18 18 17 17 16
21 21 20 20 20 19 19 19 18 18 18 18 18 18 18 18 18 18 17 17 17 18 18 18 18 17 17 17 17 16 16 17 17 18 18 18 18 17 15 15 14 14 14 13 13 13 12 12 12 12 12 12 12 12 11 11 11 11 11 10 10 10 10 10 10 10 10 10 10 11 11 12 13 14 15 16 16 17 18 18 18 18 18 17 17 16
22 22 21 21 21 20 20 19 19 19 18 18 18 19 19 19 19 19 18 18 18 18 18 18 18 18 18 18 17 17 17 17 17 18 18 18 18 17 16 15 14 14 14 13 13 13 12 12 12 12 12 12 12 12 11 11 11 11 10 10 10 10 9 9 9 8 8 8 8 9 9 10 11 12 13 13 14 15 16 17 17 17 17 16 16 16
24 23 23 22 22 21 21 20 20 19 19 19 19 19 19 19 19 19 19 19 19 19 19 19 19 18 18 18 18 17 17 17 17 17 18 18 18 17 16 15 15 14 14 13 13 13 13 13 12 12 12 12 12 12 11 11 11 10 10 10 9 9 8 8 7 7 7 7 7 7 8 8 9 10 11 12 13 14 14 15 15 16 16 15 15 15
25 24 24 23 23 22 22 21 21 20 20 20 20 21 21 20 20 20 20 19 19 19 19 19 19 19 19 18 18 18 17 17 17 17 17 17 17 16 16 15 15 14 14 14 13 13 13 13 13 12 12 12 12 12 11 11 10 10 10 9 8 8 7 7 6 6 6 6 6 6 7 7 8 9 10 10 11 12 13 14 14 14 14 14 14 14
26 25 25 25 24 23 23 22 22 21 21 21 21 22 22 22 21 21 20 20 20 19 20 20 20 20 19 19 18 18 17 17 16 16 17 17 17 16 16 15 15 15 14 14 14 13 13 13 13 13 12 12 12 11 11 11 10 10 9 8 7 7 6 6 5 5 5 5 5 6 6 7 8 8 9 10 11 11 12 13 13 14 14 14 14 14
27 26 26 25 25 24 24 23 23 23 22 22 22 22 22 22 22 22 21 20 20 20 20 21 21 20 20 19 19 18 18 17 17 16 16 17 17 16 16 15 15 15 15 14 14 14 14 14 13 13 13 12 12 11 11 10 10 9 8 7 7 6 5 5 5 4 4 5 5 6 6 7 8 9 9 10 11 12 12 13 13 14 14 14 14 14
28 27 27 26 26 26 25 25 24 24 23 23 23 22 22 22 22 22 22 21 20 21 21 21 21 21 21 20 20 19 18 18 17 17 16 17 17 17 16 15 15 15 15 15 14 14 14 14 14 13 13 12 12 11 10 10 9 8 7 6 6 5 5 4 4 4 5 5 6 6 7 8 8 9 10 11 12 12 13 13 14 14 15 15 15 15
29 28 28 27 27 27 26 26 25 25 24 24 23 23 22 22 22 22 22 21 21 21 21 21 21 21 21 21 20 19 19 18 17 17 17 17 17 17 16 16 16 15 15 15 15 15 15 14 14 13 13 12 11 11 10 9 8 7 6 5 5 5 4 4 5 5 5 6 6 7 8 9 9 10 11 12 13 13 14 15 15 15 16 16 16 17
30 30 29 29 29 28 28 27 26 26 25 25 24 24 23 23 22 22 22 22 22 22 22 22 22 21 21 21 21 20 19 18 17 17 17 18 18 17 17 16 16 16 16 16 16 16 16 15 14 14 13 12 11 10 8 7 6 6 5 5 5 5 5 5 5 6 6 6 7 8 9 10 10 11 12 13 14 15 16 16 16 17 17 17 18 18
32 32 31 31 30 30 29 28 28 27 26 26 25 25 24 24 23 23 23 23 23 22 23 22 22 22 22 22 21 21 20 19 18 18 18 18 18 18 17 17 17 17 17 17 17 17 16 15 15 13 12 11 9 8 7 6 6 5 5 5 5 5 6 6 6 7 7 8 8 9 10 11 12 13 14 15 16 16 17 18 18 18 18 19 19 20
34 33 33 32 32 31 30 30 29 28 28 27 26 26 26 25 25 25 24 24 24 24 24 23 23 23 22 22 22 21 21 20 19 19 19 19 19 19 18 18 18 18 18 18 18 17 16 15 14 13 11 9 8 7 6 6 5 5 5 5 6 6 6 7 7 8 8 9 9 10 11 12 13 14 15 16 17 18 19 19 20 20 20 21 21 22
35 35 34 34 33 32 32 31 30 30 29 29 28 28 28 27 27 27 26 26 26 25 25 25 25 24 24 23 22 22 21 21 20 20 20 20 20 20 20 20 20 20 20 19 19 18 16 14 12 11 9 8 7 6 6 6 6 6 6 6 7 7 7 8 8 9 9 10 10 11 12 13 14 16 17 18 19 20 21 21 22 22 23 23 23 24
36 35 35 35 34 34 33 33 32 32 31 31 31 30 30 30 29 29 29 28 28 27 27 26 26 26 25 25 24 23 22 22 22 21 21 22 22 22 22 22 22 22 21 20 19 17 15 12 10 9 8 7 6 6 6 6 6 6 7 7 7 8 8 8 9 9 10 10 11 12 13 14 16 17 19 20 21 22 23 24 24 25 25 26 26 27
37 37 36 36 36 35 35 35 34 34 34 33 33 33 32 32 32 31 31 30 30 29 29 28 28 27 27 26 26 25 25 24 24 23 23 24 24 24 24 24 24 23 22 20 18 16 13 11 9 8 7 7 6 6 6 7 7 7 8 8 8 8 9 9 9 10 10 11 12 13 14 16 17 19 20 22 23 24 25 26 27 27 28 28 29 30
39 39 39 38 38 38 38 37 36 36 36 35 35 35 34 34 34 33 33 32 32 31 31 30 30 29 28 28 28 27 27 26 26 25 25 26 26 26 26 26 25 24 22 19 17 14 11 9 8 7 7 7 7 7 7 8 8 8 8 8 9 9 9 9 10 10 11 12 13 14 16 17 19 20 22 24 25 26 27 28 29 30 31 31 31 32
41 41 42 41 41 40 40 39 38 38 37 37 37 36 36 35 35 35 34 34 34 33 33 32 32 31 30 30 29 29 28 28 28 27 27 27 27 28 28 27 26 24 21 18 15 12 10 8 7 7 7 7 8 8 9 9 9 9 9 9 9 9 9 10 10 10 11 13 14 16 17 19 21 22 24 26 27 29 30 31 32 33 33 34 34 34
44 44 44 43 43 42 41 40 40 39 39 38 38 38 37 37 36 36 36 35 35 35 34 34 33 33 32 31 31 30 30 30 30 30 29 29 29 29 29 28 26 23 20 17 13 10 8 8 7 7 8 8 9 9 9 9 9 9 9 9 9 10 10 10 10 11 12 14 15 17 19 21 23 25 27 28 30 32 33 34 35 35 35 35 35 35
47 47 46 45 44 43 42 42 41 41 40 40 40 39 39 38 38 37 37 36 36 36 36 35 35 34 33 33 32 32 31 32 32 32 32 32 31 31 30 28 26 22 18 15 11 9 8 8 8 8 8 9 9 10 10 10 10 9 9 10 10 10 11 11 12 14 15 17 18 20 23 25 27 29 31 33 34 35 36 37 37 38 38 37 37 37
49 49 48 46 45 44 44 43 43 43 42 42 41 40 40 40 39 39 38 38 37 37 37 36 36 35 35 34 33 33 33 33 34 34 34 34 33 32 30 27 24 20 16 13 10 8 7 8 8 9 9 10 10 10 11 10 10 10 10 11 11 12 13 14 16 18 19 21 24 26 28 30 32 34 36 37 39 40 41 41 41 41 41 41 41 41
51 50 49 48 47 46 45 45 45 44 44 43 43 42 42 41 41 41 40 39 39 39 38 38 37 36 36 35 35 35 35 35 36 36 36 35 34 33 30 26 22 18 14 10 9 8 8 8 9 10 10 10 11 11 11 11 11 11 11 12 13 14 16 19 21 23 25 27 29 32 34 35 37 39 41 42 43 44 45 45 46 46 45 45 45 45
53 52 50 49 49 48 47 47 46 46 45 45 45 44 44 43 43 43 42 42 41 41 40 39 39 38 38 37 37 37 37 37 38 38 38 37 35 32 29 24 19 15 11 9 8 7 8 9 10 10 11 11 11 11 12 12 12 12 12 12 14 16 20 24 27 29 32 34 35 37 39 41 43 44 46 47 48 49 50 50 51 51 51 50 50 50
54 53 52 51 50 50 49 48 48 48 47 47 47 46 46 45 45 44 44 43 43 42 42 41 40 40 39 39 39 39 39 39 39 39 39 37 35 31 26 21 17 12 9 7 7 8 9 10 11 11 12 12 12 12 12 12 12 12 12 13 15 18 24 28 31 34 37 40 41 43 44 46 47 49 50 52 53 54 54 55 55 55 55 55 54 54
56 55 53 52 51 50 50 50 49 49 49 49 49 48 48 47 46 46 45 45 44 43 43 42 42 41 41 41 41 41 42 41 41 40 39 37 33 29 23 18 13 10 7 7 7 8 10 11 11 12 12 12 12 12 12 12 12 13 14 15 18 21 26 31 35 39 43 45 46 47 48 49 50 51 53 54 56 56 57 58 58 58 57 56 56 55
57 55 54 52 51 51 51 50 50 50 50 50 50 50 49 49 48 47 47 46 45 45 44 44 43 43 44 44 44 44 44 44 43 41 39 35 31 25 19 14 10 8 6 6 8 9 11 12 13 13 13 13 13 13 13 13 13 14 15 17 19 23 26 31 36 41 45 47 49 50 50 50 52 53 55 56 57 57 58 58 58 58 57 56 55 54
57 55 53 52 52 51 51 51 51 51 51 51 51 51 50 50 49 48 47 46 46 45 45 45 45 46 46 46 46 46 47 46 44 41 37 33 27 21 16 11 8 6 6 7 8 10 11 13 13 14 14 14 14 14 14 14 14 15 15 18 20 23 27 31 35 39 43 46 48 50 50 51 52 53 54 55 56 56 56 56 57 56 56 55 55 54
56 54 53 52 51 51 51 51 51 51 52 52 52 51 51 50 49 49 48 47 46 46 46 46 46 47 48 48 48 48 48 46 44 40 35 29 23 17 12 8 6 5 5 7 9 10 12 13 14 14 14 15 15 15 15 15 15 16 16 18 20 23 26 30 34 37 40 43 46 48 49 50 51 52 52 53 54 54 55 55 56 56 56 56 56 56
55 54 53 52 52 51 51 51 51 52 52 52 52 52 51 51 50 49 48 48 47 47 47 47 48 48 49 49 49 49 48 45 42 37 31 24 18 12 8 6 5 5 6 8 10 11 13 14 15 15 15 15 16 16 16 16 16 16 17 18 19 21 24 28 31 35 37 41 43 45 47 48 50 50 50 51 52 53 54 56 56 57 57 57 57 57
55 54 53 52 52 52 52 52 52 52 52 52 53 52 52 51 50 50 49 49 48 48 48 49 50 50 51 51 51 50 48 44 39 32 25 18 13 9 6 5 5 6 7 9 11 13 14 15 16 16 17 17 17 17 17 17 17 18 18 18 18 19 21 24 28 31 35 37 40 42 44 46 47 47 48 49 51 52 53 55 56 57 56 56 55 55
55 54 53 53 53 53 53 53 53 53 53 53 53 53 53 52 51 50 50 49 49 50 50 50 51 52 52 52 51 49 46 40 33 26 18 13 9 6 5 5 6 7 8 10 12 14 16 17 17 18 18 18 18 18 19 18 18 18 18 18 17 17 18 20 24 27 31 34 36 39 41 42 43 44 45 46 47 49 50 52 54 54 54 53 52 50
55 54 54 55 55 55 55 54 54 54 54 54 54 54 53 52 51 51 50 50 50 50 51 51 52 53 53 52 50 47 43 35 27 20 13 9 6 5 5 5 6 8 10 12 14 16 18 18 19 19 20 20 20 21 21 20 20 19 18 18 17 16 16 18 20 23 27 30 33 35 37 38 39 40 41 42 43 44 46 47 49 49 49 47 45 43
Wind_Speed
41 41 42 42 43 43 42 41 38 34 30 27 24 23 22 22 22 22 22 22 21 21 21 21 22 24 26 26 26 23 19 14 13 17 23 27 29 31 33 34 34 35 37 38 38 37 36 36 37 37 37 37 36 36 35 35 35 34 34 34 34 35 35 35 35 35 35 36 37 38 39 40 41 42 43 44 44 45 46 46 47 48 48 49 50 51
40 40 40 40 40 40 40 39 36 32 29 26 23 22 21 21 21 20 20 19 19 19 19 20 21 22 24 24 23 21 18 14 10 8 13 18 22 25 27 29 30 32 33 33 33 33 34 35 37 37 37 37 36 36 37 37 37 37 36 36 36 37 37 36 36 36 36 36 37 38 39 40 41 43 44 45 45 46 46 47 47 47 48 48 49 50
38 38 38 38 38 38 37 36 34 31 28 25 23 22 21 20 19 19 18 18 17 18 18 19 20 22 22 23 22 19 16 13 10 6 6 10 14 18 22 24 26 28 28 28 29 30 32 34 35 36 36 36 36 37 37 38 38 38 38 38 38 38 38 38 37 37 37 37 38 38 39 40 41 43 44 45 46 47 47 47 47 47 47 48 48 49
37 36 36 35 35 35 35 34 32 29 27 24 23 22 20 19 19 18 17 17 17 17 18 19 20 21 22 22 21 19 16 13 10 8 6 7 10 14 17 20 22 23 24 26 27 29 31 32 33 34 35 35 36 37 37 37 38 38 38 39 39 39 39 39 39 38 38 38 39 39 40 40 41 43 44 45 46 47 47 47 47 48 48 48 48 49
35 34 34 33 33 33 33 32 30 28 26 24 22 21 20 19 18 18 17 17 17 17 18 19 20 21 21 21 20 18 16 14 12 10 9 9 10 13 15 18 20 22 24 26 28 29 30 31 32 32 33 34 35 36 36 37 37 38 38 39 40 40 40 40 40 40 40 40 40 40 41 41 42 43 44 45 46 47 47 48 48 48 49 49 50 50
33 32 32 31 31 31 31 30 29 27 25 23 22 21 20 19 18 18 17 17 17 18 18 19 20 20 21 20 20 18 17 15 14 13 12 12 13 15 17 19 21 23 25 26 28 29 29 30 31 31 32 33 34 35 36 36 37 38 39 40 41 41 41 41 41 41 41 41 41 41 42 42 43 44 45 46 46 47 48 49 49 50 51 51 52 52
31 31 31 30 30 29 29 29 28 26 25 23 21 20 20 19 19 18 18 18 18 18 19 19 20 20 20 20 19 18 17 16 15 14 14 14 15 16 18 19 21 23 25 26 27 28 29 30 30 31 32 33 34 35 36 37 38 38 39 40 41 41 42 42 42 42 42 42 42 43 43 44 45 45 46 47 48 49 49 50 51 51 52 52 53 54
30 30 29 29 29 28 28 28 27 26 25 23 22 21 20 19 19 19 18 18 18 18 18 19 19 20 20 20 19 19 18 18 17 17 17 17 17 18 19 21 22 23 25 26 27 28 29 30 31 32 33 34 35 36 36 37 38 39 40 40 41 41 42 42 42 42 43 43 43 44 45 45 46 47 48 49 49 50 51 51 52 52 52 53 53 54
29 29 28 28 28 27 27 27 26 26 25 24 23 21 20 20 19 19 19 18 18 18 18 18 18 19 19 20 20 19 19 19 19 19 19 20 20 21 22 23 24 25 26 27 28 29 30 31 32 33 34 35 35 36 37 38 38 39 39 40 40 41 41 41 41 42 42 43 43 44 45 46 46 47 48 49 49 50 51 51 51 52 52 52 52 53
28 28 28 28 27 27 27 26 26 26 25 25 24 23 22 21 20 19 19 19 19 18 18 18 18 19 19 19 19 19 19 20 20 20 21 21 22 23 24 25 26 27 28 28 29 30 31 32 33 34 34 35 35 36 36 37 38 38 39 39 39 39 39 40 40 40 41 42 42 43 44 45 46 47 47 48 49 49 50 50 51 51 51 51 52 52
28 28 28 27 27 27 27 26 26 26 26 25 24 24 23 22 21 21 20 20 20 20 20 19 19 19 19 19 19 19 19 19 20 20 21 21 22 23 24 25 26 27 28 28 29 30 31 32 32 33 33 34 34 35 35 36 36 37 37 37 38 38 38 39 39 40 40 41 42 42 43 44 45 46 47 47 48 49 49 50 50 50 51 51 52 52
28 28 28 27 27 27 27 26 26 26 26 25 25 24 24 24 23 23 22 22 21 21 21 21 21 21 21 20 20 20 20 20 20 20 21 21 22 23 24 24 25 26 27 28 29 30 30 31 31 32 33 33 34 34 35 36 36 37 37 38 38 38 39 39 40 40 41 41 42 43 44 44 45 46 46 47 48 49 49 50 50 51 51 52 52 53
28 28 28 27 27 27 27 26 26 26 26 26 25 25 25 25 25 24 24 23 23 23 23 23 22 22 22 22 22 22 21 21 21 22 22 22 23 24 25 25 26 27 28 29 30 31 31 32 33 33 34 35 35 36 37 37 38 38 39 39 40 40 41 41 42 42 43 43 44 45 45 46 46 47 47 48 49 49 50 51 51 52 52 52 53 54
28 28 28 27 27 27 27 27 26 26 26 26 26 26 26 26 26 26 25 25 25 24 24 24 24 23 23 23 23 24 23 23 24 24 24 25 25 26 26 27 28 29 30 30 31 32 33 34 34 35 36 37 38 38 39 40 40 41 41 42 42 43 43 44 44 45 45 46 46 47 47 48 48 49 49 50 50 51 51 52 52 53 53 53 54 54
28 28 28 28 27 27 27 27 27 27 27 27 27 27 27 27 27 27 27 26 26 26 26 26 25 25 25 25 25 25 26 26 26 26 26 27 27 28 28 29 29 30 31 32 32 33 34 35 35 36 37 38 39 40 41 41 42 42 43 44 44 45 45 46 46 47 48 48 49 49 49 50 50 51 51 51 52 52 52 53 53 54 54 54 55 55
29 28 28 28 27 27 27 27 27 27 27 27 27 28 28 28 28 28 28 28 28 28 28 28 28 28 28 28 28 28 28 28 28 29 29 29 30 31 31 31 32 32 33 33 34 35 35 36 37 38 39 39 40 41 42 43 43 44 44 45 46 46 47 48 48 49 49 50 50 51 51 51 52 52 52 53 53 53 53 54 54 54 55 55 55 55
29 28 28 28 28 28 27 27 27 28 28 28 28 28 28 29 29 29 30 30 30 30 30 30 30 30 30 30 30 31 31 31 31 31 32 32 33 34 34 34 34 35 35 36 36 37 37 38 39 40 40 41 42 43 43 44 44 45 46 46 47 48 48 49 49 50 50 51 51 52 52 52 53 53 53 53 54 54 54 54 54 55 55 55 55 56
29 29 29 28 28 28 28 28 28 28 28 28 29 29 29 29 30 30 30 31 31 31 32 32 32 32 32 32 32 33 33 33 33 33 34 34 35 36 37 37 37 37 38 38 39 39 40 40 41 42 42 43 44 44 45 45 46 46 47 48 48 49 49 50 50 51 51 52 52 52 53 53 53 54 54 54 54 54 55 55 55 55 55 55 56 56
29 29 29 29 29 29 29 29 29 29 29 29 29 30 30 30 31 31 31 32 32 32 33 33 33 34 34 34 34 35 35 35 35 35 36 36 37 38 39 39 39 39 40 40 40 41 42 42 43 43 44 45 45 46 46 47 47 48 48 49 49 50 50 51 51 52 52 52 53 53 53 54 54 54 54 55 55 55 55 55 55 55 56 56 56 56
29 29 29 29 29 29 29 29 29 29 30 30 30 30 30 31 31 32 32 33 33 33 34 34 35 35 35 36 36 37 37 37 37 37 38 38 39 40 41 41 41 41 42 42 42 43 43 44 45 45 46 46 47 47 48 48 49 49 50 50 51 51 51 52 52 52 53 53 53 53 54 54 54 54 55 55 55 55 55 55 56 56 56 56 56 56
30 30 30 30 30 30 30 30 30 30 30 30 31 31 31 32 32 32 33 33 34 34 35 35 36 36 37 37 38 38 39 39 39 39 39 40 41 42 42 43 43 43 43 44 44 45 45 46 46 47 47 48 49 49 50 50 51 51 52 52 52 53 53 53 54 54 54 54 54 54 54 54 55 55 55 55 55 55 55 56 56 56 56 56 56 57
31 31 31 30 30 30 30 30 30 30 31 31 31 31 32 32 33 33 34 34 35 35 36 36 37 37 38 38 39 39 40 40 40 40 41 41 42 43 44 44 44 45 45 45 46 46 47 47 48 49 49 50 51 51 52 52 53 53 54 54 54 55 55 55 55 55 55 55 55 55 55 55 55 55 56 56 56 56 56 56 56 56 56 56 56 57
31 31 31 31 31 31 31 31 31 31 31 31 32 32 32 33 33 34 35 35 36 36 37 37 38 38 39 39 40 40 40 41 41 41 41 42 43 44 44 45 45 46 46 46 47 48 48 49 50 51 51 52 53 53 54 55 55 55 56 56 56 56 56 56 56 56 56 56 56 56 56 56 56 56 56 56 56 56 56 56 56 56 56 56 56 56
32 32 32 32 32 32 32 32 31 32 32 32 32 33 33 34 34 35 36 36 36 37 37 38 39 39 40 40 40 41 41 41 42 42 42 43 43 44 45 45 46 46 47 48 48 49 50 51 51 52 53 54 55 55 56 56 57 57 57 57 57 57 57 57 57 57 57 57 56 56 56 56 56 56 56 56 56 56 56 56 56 56 56 56 56 56
32 32 32 32 32 32 32 32 32 32 32 33 33 34 34 35 35 36 36 37 37 38 38 39 39 40 40 40 41 41 42 42 42 43 43 44 44 45 46 46 47 48 49 49 50 51 52 53 53 54 55 56 56 57 57 58 58 58 58 58 58 58 57 57 57 57 56 56 56 56 56 55 55 55 55 55 55 55 55 55 55 55 55 55 55 55
33 33 33 33 33 33 33 33 33 33 33 33 34 34 35 36 36 37 37 38 38 38 39 39 40 40 41 41 42 42 42 43 43 43 44 45 45 46 47 47 48 49 50 51 52 53 54 55 55 56 57 57 58 59 59 59 59 59 59 58 58 58 57 57 57 56 56 55 55 55 55 54 54 54 54 54 54 54 54 54 54 54 54 54 54 54
33 33 33 33 33 33 33 34 34 34 34 34 35 35 36 36 37 38 38 38 39 39 39 40 40 41 41 42 42 43 43 44 44 44 45 46 47 47 48 49 50 51 52 53 54 55 55 56 57 58 58 59 60 60 60 60 60 59 59 59 58 58 57 57 56 56 55 55 54 54 54 53 53 53 53 53 53 54 54 54 54 54 54 53 53 53
34 34 34 34 34 34 34 34 35 35 35 35 36 36 37 37 38 38 39 39 40 40 40 40 41 41 42 43 43 44 44 45 45 46 46 47 48 49 50 51 51 52 53 55 56 56 57 58 59 59 60 60 60 60 60 60 60 59 59 58 58 57 57 56 56 55 54 54 53 53 53 52 52 52 52 52 53 53 53 53 53 53 53 53 52 52
34 35 35 35 35 35 35 35 36 36 36 37 37 37 38 38 39 39 40 40 40 41 41 41 42 42 43 43 44 45 45 46 46 47 48 48 49 50 51 52 53 54 55 56 57 58 59 59 59 60 60 60 60 60 59 59 59 58 58 58 57 56 56 55 55 54 54 53 53 52 52 52 52 52 52 52 52 52 52 52 52 52 52 52 52 52
35 35 35 35 36 36 36 36 37 37 37 38 38 39 39 39 40 40 41 41 41 42 42 42 43 43 44 44 45 46 47 47 47 48 49 50 50 51 52 53 54 55 56 57 58 59 59 60 60 60 59 59 59 59 58 58 58 57 57 56 56 56 55 55 54 54 53 53 52 52 52 51 51 51 51 51 51 52 52 52 52 52 52 51 51 51
35 36 36 36 36 37 37 37 38 38 38 39 39 40 40 41 41 41 42 42 42 43 43 43 44 44 45 45 46 47 48 48 49 49 50 51 52 53 53 54 55 56 57 57 58 59 59 60 59 59 58 58 58 57 57 57 56 56 56 55 55 55 55 54 54 53 53 53 52 52 51 51 51 51 51 51 51 51 51 51 51 51 51 51 51 51
36 36 36 37 37 37 38 38 38 39 39 40 40 41 41 42 42 43 43 43 44 44 44 44 45 45 46 46 47 48 49 49 50 50 51 52 53 54 54 55 56 57 58 58 58 58 59 59 59 58 57 57 56 56 56 55 55 55 54 54 54 54 54 53 53 53 53 52 52 52 51 51 51 51 51 51 51 51 51 51 51 51 51 50 50 50
36 36 37 37 38 38 38 39 39 40 40 41 41 42 43 43 43 44 44 44 45 45 45 46 46 46 47 48 48 49 50 50 51 52 52 53 54 54 55 56 56 57 58 58 58 58 58 58 58 57 57 56 55 55 55 54 54 53 53 53 53 53 53 53 53 53 52 52 52 52 51 51 51 50 50 50 50 50 51 51 51 51 50 50 50 50
37 37 37 38 38 39 39 40 40 41 41 42 43 43 44 44 45 45 45 45 46 46 46 47 47 48 48 49 50 50 51 51 52 52 53 54 54 55 56 56 57 57 57 58 57 57 57 57 56 56 56 55 55 54 54 53 53 53 52 52 53 53 53 53 53 52 52 52 52 51 51 51 50 50 50 50 50 50 50 50 50 50 50 50 49 49
37 38 38 39 39 40 40 41 41 42 42 43 44 44 45 45 46 46 46 47 47 47 47 48 48 48 49 50 50 51 52 53 53 53 54 54 55 56 56 56 57 57 57 57 57 56 56 56 55 55 55 55 54 54 53 52 52 52 52 52 52 52 52 52 52 52 52 52 52 51 51 51 50 50 50 50 50 50 50 49 49 49 49 49 49 49
38 38 39 40 40 41 41 42 42 43 44 44 45 45 46 46 47 47 47 47 48 48 48 48 49 49 50 51 51 52 53 54 54 54 54 55 55 56 56 57 57 57 57 56 56 55 55 54 54 54 53 53 53 53 53 52 51 51 51 52 52 52 52 52 52 52 52 52 52 51 51 51 50 50 50 49 49 49 49 49 49 49 49 49 48 48
39 40 40 41 41 42 43 43 43 44 44 45 46 46 47 47 47 48 48 48 48 49 49 49 50 50 51 51 52 53 54 54 55 55 55 55 56 56 56 57 57 56 56 56 55 55 54 53 53 53 52 52 52 52 52 52 51 51 51 51 52 52 52 52 52 52 52 52 52 51 51 50 50 50 49 49 49 48 48 48 48 48 48 48 48 48
40 41 41 42 42 43 44 44 44 45 45 46 46 47 47 48 48 48 49 49 49 49 50 50 50 51 52 52 53 54 54 55 55 56 56 56 56 56 56 57 57 56 56 55 54 54 53 52 52 51 51 51 51 51 51 51 51 51 51 51 52 52 52 53 52 52 52 52 51 51 51 50 50 49 49 49 48 48 48 47 47 47 47 47 47 48
41 42 43 43 44 44 44 45 45 46 46 47 47 48 48 49 49 49 49 50 50 50 50 51 51 52 52 53 54 54 55 55 56 56 56 56 56 56 56 56 57 56 56 55 54 53 52 51 51 50 50 50 50 50 50 50 50 50 51 51 52 52 52 52 52 52 52 51 51 50 50 50 49 49 48 48 47 47 47 47 47 47 47 47 47 47
42 43 44 44 45 45 45 46 46 47 47 48 48 49 49 49 50 50 50 50 50 51 51 51 52 52 53 54 54 55 55 56 56 56 56 57 57 56 56 56 56 56 55 54 53 52 51 50 50 49 49 49 49 49 49 49 49 49 50 50 50 51 51 51 51 51 50 50 50 50 49 49 49 48 48 47 47 46 46 46 46 46 46 46 47 47
43 44 44 45 45 46 46 47 47 48 48 49 49 50 50 50 50 51 51 51 51 51 52 52 53 53 54 54 55 55 56 56 56 56 57 57 57 57 57 57 57 56 55 54 52 51 50 49 49 48 48 47 47 48 48 48 49 49 49 49 49 49 49 49 49 49 49 49 49 49 48 48 48 47 47 47 46 46 46 46 46 46 46 46 47 47
44 45 45 46 46 47 47 48 49 49 49 50 50 50 50 51 51 51 51 51 52 52 52 52 53 54 54 55 55 56 56 56 56 56 57 57 57 57 57 57 57 56 54 53 52 50 49 48 48 47 47 46 46 47 47 47 48 48 48 48 48 48 47 48 48 48 48 48 48 48 48 47 47 47 46 46 46 46 46 46 46 46 47 47 47 47
45 45 46 47 47 48 48 49 49 50 50 50 51 51 51 51 52 52 52 52 52 52 53 53 54 54 55 55 56 56 56 56 56 56 57 57 57 58 58 57 57 55 54 52 51 49 48 48 47 46 46 46 46 46 46 47 47 47 47 47 46 46 45 46 46 47 47 47 47 47 47 47 46 46 46 45 46 46 46 46 46 46 47 47 47 47
46 46 47 47 48 49 49 50 50 50 51 51 51 51 52 52 52 52 52 52 53 53 53 54 54 55 55 56 56 57 57 57 56 56 57 57 57 58 58 57 56 55 53 51 49 48 48 47 46 46 45 45 45 45 46 46 46 47 47 46 45 44 44 44 44 45 46 46 47 47 47 46 46 45 45 45 45 45 46 46 46 46 47 47 47 48
47 47 48 48 49 49 50 50 51 51 51 51 52 52 52 52 52 52 52 53 53 53 54 54 55 55 56 56 57 57 57 57 57 57 57 57 58 58 57 56 55 53 51 50 48 47 46 46 46 45 45 45 45 45 45 46 46 46 46 45 44 43 43 43 43 44 44 45 46 46 46 46 46 45 45 45 45 45 45 45 46 46 47 47 47 48
47 48 48 49 49 50 50 51 51 51 52 52 52 52 52 52 53 53 53 53 53 54 54 55 55 56 56 57 57 57 58 58 58 58 58 58 58 58 57 55 54 52 50 48 47 46 45 45 45 45 45 45 45 45 45 45 45 45 45 44 43 42 42 42 42 42 43 44 44 45 45 45 45 45 45 45 44 45 45 45 46 46 46 47 47 48
48 48 49 49 50 50 51 51 51 52 52 52 52 52 52 53 53 53 53 53 54 54 55 55 56 56 56 57 57 58 58 58 59 59 59 59 58 57 56 54 52 50 48 46 45 45 44 44 44 44 44 44 44 44 45 45 45 45 44 43 42 41 41 41 41 41 42 43 43 44 44 44 44 44 44 44 44 44 44 45 45 46 46 47 47 48
48 49 49 50 50 51 51 51 52 52 52 52 52 53 53 53 53 53 53 54 54 54 55 55 56 56 57 57 58 58 58 59 59 60 59 59 58 57 55 53 51 48 46 45 44 44 43 44 44 44 44 44 44 44 44 45 45 44 44 43 42 41 40 40 40 41 41 41 42 43 43 43 44 44 44 43 43 43 43 44 44 45 46 46 47 48
49 49 50 50 51 51 51 52 52 52 52 52 53 53 53 53 53 53 54 54 54 55 55 56 56 57 57 57 58 58 59 59 60 60 60 59 58 56 54 52 49 47 45 43 43 42 43 43 43 43 44 44 44 44 44 44 44 44 44 43 42 41 40 40 40 40 40 41 41 41 42 42 43 43 43 43 42 42 42 43 44 44 45 46 47 48
49 50 50 51 51 51 52 52 52 52 53 53 53 53 53 53 53 53 54 54 55 55 55 56 56 57 57 58 58 59 59 60 60 60 60 59 57 55 53 51 48 46 44 42 42 42 42 42 43 43 43 43 43 43 44 44 44 44 44 43 42 41 40 39 39 39 39 40 40 40 41 41 42 42 42 42 42 41 41 42 42 44 45 46 46 47
50 50 51 51 51 52 52 52 53 53 53 53 53 53 53 53 54 54 54 54 55 55 55 56 56 57 57 58 59 59 60 60 60 60 59 58 56 54 52 49 47 45 43 42 41 41 41 41 42 43 43 44 43 43 43 44 44 44 44 43 42 41 40 39 39 39 39 39 39 40 40 41 41 41 41 41 41 40 40 40 41 42 43 44 44 44
Wind_Direction
319 321 323 326 328 330 332 333 333 332 331 329 326 322 318 315 314 313 313 314 315 316 317 318 318 320 322 326 330 334 336 324 288 260 250 246 245 246 248 251 252 249 245 243 242 244 247 252 255 259 262 266 269 271 272 271 271 271 271 273 275 277 278 277 275 272 269 266 264 263 262 261 260 260 260 260 261 261 261 261 261 260 260 259 258 258
318 320 323 325 328 331 333 334 334 334 333 331 329 326 323 320 319 318 319 321 323 324 325 324 324 325 327 330 333 337 340 341 327 285 254 244 242 242 243 241 238 235 234 235 239 244 249 253 257 261 264 267 270 271 272 272 272 272 273 274 276 278 279 278 276 274 271 268 266 264 263 262 262 261 261 261 262 262 263 263 262 262 261 260 260 259
318 320 323 325 328 331 333 335 335 335 334 333 331 329 327 325 324 323 323 325 327 328 327 327 327 327 329 332 336 340 343 345 342 324 275 246 238 235 234 232 231 232 236 241 247 251 255 258 261 264 267 270 271 272 272 273 272 272 273 274 276 278 279 278 276 274 271 269 267 265 264 263 262 262 262 262 262 263 263 263 263 263 262 262 261 261
318 320 323 325 328 331 334 335 336 336 335 334 332 331 329 328 326 325 325 326 327 327 327 326 326 327 328 331 335 339 342 344 342 331 304 268 249 242 240 241 243 247 252 256 259 261 263 264 266 269 271 272 273 273 273 273 272 272 273 275 277 278 279 278 276 273 271 269 268 266 265 264 263 263 262 262 262 263 263 264 264 264 264 264 263 263
318 320 323 326 329 331 334 335 336 336 335 334 332 330 329 327 325 324 324 324 325 325 324 323 323 324 325 328 330 334 336 337 334 326 312 294 278 268 263 262 264 265 267 268 268 269 269 270 271 272 273 274 274 274 273 273 273 273 274 276 277 279 279 278 276 274 271 270 268 267 266 265 264 263 263 262 262 263 263 263 264 265 265 265 265 265
319 321 323 326 329 331 333 335 335 336 335 334 332 329 327 325 323 322 322 322 322 321 320 319 319 320 320 322 324 326 328 328 325 319 311 301 292 284 279 277 275 275 274 274 274 274 274 274 275 275 275 275 275 275 274 274 275 275 276 277 278 279 279 278 276 274 272 270 269 268 267 266 265 264 264 263 263 263 263 263 264 264 265 265 265 265
319 322 324 326 329 331 333 334 335 335 335 334 332 329 326 324 323 322 321 320 319 317 316 315 315 314 315 316 317 319 319 319 316 312 305 299 292 287 283 280 278 277 277 276 276 276 277 277 277 277 277 276 276 276 276 276 276 276 277 277 278 278 278 277 276 275 273 271 269 268 267 266 265 265 264 264 264 264 264 264 264 264 264 264 264 264
321 323 325 327 329 330 332 333 334 334 334 334 333 331 328 326 324 322 320 319 317 314 312 311 310 309 309 310 311 312 312 311 309 306 302 297 293 289 285 282 281 279 279 279 278 278 278 278 278 278 278 278 278 278 277 277 277 277 277 277 277 277 276 276 275 274 273 271 270 269 268 267 267 266 266 265 265 265 265 264 264 264 264 264 263 263
322 324 325 326 327 328 329 331 332 333 334 334 334 334 332 329 327 324 322 319 316 313 310 309 307 307 306 307 307 308 307 307 305 303 300 298 295 292 289 287 285 284 283 282 282 281 281 280 280 280 280 279 279 279 279 278 278 278 277 277 276 276 275 275 274 274 273 272 271 270 269 269 268 268 267 267 266 266 265 265 265 264 264 264 263 263
322 323 324 324 325 326 327 328 329 330 331 332 333 333 333 332 329 327 324 321 318 316 313 312 310 309 308 307 307 307 306 305 303 301 299 297 295 293 291 289 287 286 285 284 283 283 282 281 281 281 280 280 280 280 279 279 278 278 277 277 277 276 276 275 274 274 273 273 272 271 271 270 270 269 268 268 268 267 267 266 266 265 265 264 264 264
321 321 322 322 322 323 323 324 325 326 327 328 329 330 330 330 329 328 327 325 323 321 319 318 317 316 315 313 311 310 308 306 303 301 299 297 295 292 290 289 287 286 285 284 283 283 282 282 281 281 281 281 281 280 280 280 279 279 278 278 278 277 277 276 276 275 274 274 273 272 271 271 270 270 269 269 268 268 267 267 267 266 266 266 265 265
318 319 319 319 320 320 321 321 322 323 324 324 324 325 325 326 326 326 326 325 324 323 322 322 321 320 319 318 316 314 311 308 306 303 300 298 295 293 291 289 287 286 285 284 283 283 283 283 282 282 282 282 282 281 281 281 280 280 280 280 279 279 278 278 277 276 275 274 274 273 272 271 271 270 270 269 269 268 268 268 267 267 267 267 266 266
316 317 317 317 318 318 319 319 320 320 320 321 321 321 322 322 322 322 322 322 321 321 320 320 319 319 318 317 315 313 311 308 306 303 300 298 295 293 291 290 288 287 286 286 285 285 285 285 285 284 284 284 283 283 282 282 282 282 281 281 281 280 279 279 278 277 276 275 274 273 273 272 271 271 270 270 269 269 269 268 268 268 268 267 267 267
314 315 315 316 316 316 317 317 318 319 319 319 319 319 319 319 319 319 319 318 318 317 316 316 315 314 314 312 311 309 308 306 304 302 300 298 296 294 293 291 290 289 288 288 287 287 287 286 286 286 285 285 285 284 284 283 283 283 282 282 281 281 280 279 278 277 277 276 275 274 274 273 272 272 271 271 270 270 270 269 269 269 268 268 268 267
313 313 314 314 315 315 316 316 317 317 317 318 318 318 318 318 317 317 317 316 316 315 315 314 313 312 311 310 309 308 307 305 304 303 302 300 298 296 295 294 293 292 291 290 289 289 288 288 287 287 286 286 285 285 285 284 284 283 283 282 281 281 280 279 279 278 277 276 276 275 274 274 273 273 272 272 271 271 270 270 270 269 269 269 268 268
312 312 313 313 314 314 315 315 316 316 316 316 316 316 317 317 316 316 316 316 315 315 314 314 313 312 311 310 309 309 308 307 306 305 304 303 301 299 298 297 296 295 294 293 292 292 291 290 290 289 288 287 287 286 286 285 284 284 283 282 282 281 280 280 279 278 278 277 277 276 275 275 274 274 273 273 272 272 271 271 270 270 270 269 269 269
311 312 312 312 313 314 314 314 315 315 315 315 315 315 316 316 315 315 315 315 314 314 314 313 313 313 312 311 310 309 308 308 307 306 305 304 302 301 299 299 298 297 296 296 295 294 293 292 291 291 290 289 288 288 287 286 286 285 284 283 283 282 281 281 280 279 279 278 278 277 276 276 275 275 274 273 273 272 272 271 271 271 270 270 270 269
310 310 311 312 312 313 313 313 314 314 314 314 314 314 314 314 314 314 314 313 313 313 312 312 312 311 311 310 309 308 307 307 306 306 305 304 302 300 299 299 298 298 297 297 296 295 295 294 293 292 291 290 290 289 289 288 287 286 285 285 284 283 282 282 281 280 280 279 278 278 277 277 276 275 275 274 274 273 273 272 272 271 271 271 270 270
309 309 310 310 311 311 312 312 313 313 313 313 313 313 313 313 313 313 312 312 312 311 311 311 310 309 309 308 307 306 306 305 305 304 304 303 301 300 299 299 299 298 298 297 297 296 296 295 294 293 293 292 291 291 290 289 288 287 287 286 285 284 283 283 282 281 280 280 279 278 278 277 276 276 275 275 274 274 273 273 272 272 272 271 271 271
308 308 309 309 310 310 310 311 311 311 312 312 312 312 312 312 312 311 311 311 310 310 310 309 309 308 307 307 306 305 304 304 304 304 303 302 301 300 300 299 299 299 298 298 298 297 297 296 295 294 294 293 293 292 291 290 289 289 288 287 286 285 284 284 283 282 281 280 280 279 278 277 276 276 275 275 274 274 273 273 273 272 272 271 271 271
307 307 308 308 308 309 309 309 310 310 310 311 311 311 311 311 311 310 310 310 309 309 308 308 307 306 306 305 305 304 304 303 303 303 303 302 301 301 300 300 300 299 299 299 298 298 297 297 296 296 295 294 294 293 292 291 290 290 289 288 287 286 286 285 284 283 282 281 280 279 278 278 277 276 275 275 274 274 273 273 273 272 272 272 271 271
306 306 307 307 307 307 308 308 308 309 309 309 309 310 310 310 309 309 309 308 308 308 307 306 306 305 304 304 303 303 302 302 302 302 302 302 301 301 300 300 300 299 299 299 298 298 298 297 297 296 296 295 294 294 293 292 291 291 290 289 288 287 287 286 285 284 283 282 281 280 279 278 277 277 276 275 275 274 274 274 273 273 272 272 272 271
305 305 305 306 306 306 306 307 307 307 308 308 308 308 308 308 308 308 308 307 307 307 306 305 304 304 303 303 302 302 301 301 301 301 301 301 301 300 300 299 299 299 299 298 298 298 297 297 297 296 296 295 295 294 293 293 292 291 291 290 289 288 287 286 285 284 283 282 281 281 280 279 278 277 277 276 276 275 275 274 274 273 273 272 272 272
304 304 304 304 304 305 305 305 305 306 306 307 307 307 307 307 307 307 306 306 306 305 305 304 304 303 303 302 302 301 301 300 300 300 300 300 300 300 299 299 299 299 299 298 298 298 298 297 297 297 296 296 295 295 294 293 293 292 291 290 290 289 288 287 286 285 284 283 282 281 280 279 278 278 277 277 276 275 275 274 274 273 273 272 272 272
302 302 303 303 303 303 303 304 304 305 305 305 306 306 306 306 306 306 306 306 305 305 304 304 303 303 303 302 302 301 301 301 300 300 300 300 300 300 299 299 299 299 299 299 299 299 299 298 298 298 297 297 296 296 295 294 294 293 292 291 290 290 289 288 287 286 285 284 283 281 280 280 279 278 277 277 276 275 275 274 274 273 273 272 272 272
301 301 301 301 302 302 302 303 303 303 304 304 305 305 305 305 305 305 305 305 305 305 304 304 303 303 303 303 302 302 301 301 301 301 301 300 300 300 300 300 300 300 300 300 299 299 299 299 299 299 298 297 297 296 295 295 294 294 293 292 291 291 290 289 288 287 286 284 283 282 281 280 279 278 277 276 276 275 274 274 273 273 272 272 272 271
300 300 300 301 301 301 301 302 302 303 303 303 304 304 305 305 305 305 305 305 305 305 304 304 304 304 303 303 303 302 302 302 302 301 301 301 301 300 300 300 300 300 300 300 300 300 300 300 299 299 298 298 297 296 296 295 294 294 293 293 292 291 290 290 289 288 286 285 284 283 281 280 279 278 277 276 275 274 274 273 273 272 272 271 271 271
300 300 300 300 300 301 301 301 302 302 303 303 304 304 304 305 305 305 305 305 305 305 305 304 304 304 304 303 303 303 303 303 302 302 302 301 301 301 301 301 300 300 301 300 300 300 300 299 299 299 298 297 297 296 295 295 294 294 293 293 292 292 291 290 289 288 287 285 284 283 281 280 279 277 276 275 274 274 273 272 272 271 271 271 270 270
300 300 300 300 300 301 301 301 302 302 302 303 303 304 304 304 305 305 305 305 305 305 305 305 305 304 304 304 304 303 303 303 303 303 302 302 301 301 301 301 301 301 301 301 300 300 299 299 299 298 298 297 296 296 295 295 294 294 294 293 292 292 291 290 289 288 287 285 284 282 281 279 278 277 275 274 273 273 272 271 271 270 270 270 269 269
300 300 300 300 301 301 301 302 302 302 303 303 303 304 304 305 305 305 306 306 306 305 305 305 305 305 305 305 304 304 304 304 304 303 303 302 301 301 301 301 301 301 301 301 301 300 300 299 299 298 297 297 296 296 295 295 295 294 294 293 293 292 291 290 289 288 287 285 283 282 280 279 277 276 275 273 273 272 271 270 270 270 269 269 269 268
300 301 301 301 301 301 302 302 302 303 303 304 304 304 305 305 306 306 306 306 306 306 306 305 305 305 305 305 305 304 304 304 304 304 303 302 302 301 301 301 301 301 301 301 301 301 300 299 299 298 297 297 296 296 295 295 295 294 294 294 293 292 291 290 289 288 286 284 283 281 280 278 276 275 274 273 272 271 270 270 269 269 268 268 268 267
301 301 302 302 302 302 303 303 303 303 304 304 305 305 305 306 306 306 306 306 306 306 306 306 306 306 306 306 305 305 305 305 304 304 303 302 302 301 301 301 301 301 301 301 301 301 300 300 299 298 297 297 296 296 296 295 295 295 294 294 293 292 291 290 289 287 286 284 282 281 279 277 276 274 273 272 271 270 270 269 269 268 268 268 267 267
302 302 302 303 303 303 303 304 304 304 304 305 305 305 306 306 306 306 306 306 306 306 306 306 306 306 306 306 305 305 305 305 304 304 303 302 302 302 302 301 301 302 302 302 301 301 300 300 299 299 298 297 296 296 296 296 295 295 294 294 293 292 291 290 288 287 285 284 282 280 278 277 275 274 273 271 270 270 269 269 268 268 268 267 267 266
303 303 303 303 304 304 304 304 304 305 305 305 305 306 306 306 306 306 306 306 306 306 306 306 306 306 306 306 306 305 305 305 304 304 303 303 302 302 302 302 302 302 302 302 302 301 300 300 299 299 298 298 297 296 296 296 296 295 295 294 293 292 291 290 289 287 285 283 282 280 278 277 275 273 272 271 270 269 269 268 268 268 267 267 266 266
303 304 304 304 304 305 305 305 305 305 305 305 306 306 306 306 306 306 306 306 306 306 306 306 306 306 306 306 306 305 305 305 304 304 303 303 303 303 303 303 303 303 303 302 302 301 300 300 299 299 298 298 298 297 297 297 296 296 295 295 294 293 292 291 289 287 285 284 282 280 278 277 275 273 272 271 270 269 269 268 268 267 267 267 266 266
304 304 305 305 305 305 305 306 306 306 306 306 306 306 306 306 306 306 306 306 306 306 306 306 306 306 306 306 306 306 305 305 305 304 304 303 303 303 303 303 303 303 303 303 302 301 300 299 299 299 299 298 298 298 298 298 297 297 296 296 295 294 293 291 290 288 286 284 282 280 279 277 275 274 272 271 270 270 269 268 268 267 267 267 266 266
305 305 306 306 306 306 306 306 306 306 306 306 306 306 306 306 306 306 306 306 306 306 306 306 306 306 306 306 306 306 305 305 305 305 304 304 304 304 304 304 304 304 303 303 302 301 300 299 299 299 299 299 299 299 299 299 298 298 298 297 297 295 294 293 291 289 287 285 283 281 279 277 276 274 273 272 271 271 270 269 269 268 268 268 267 267
305 306 306 307 307 307 307 307 307 307 307 307 307 307 307 307 307 306 306 306 306 306 306 306 306 306 306 306 306 306 306 306 305 305 305 305 305 305 305 305 305 304 304 303 301 300 299 299 299 299 299 299 299 299 299 299 299 299 299 299 298 297 296 294 292 290 288 286 284 282 280 279 277 276 275 274 273 273 272 271 271 270 270 270 269 269
306 306 307 307 307 307 307 307 307 307 307 307 307 307 307 307 307 307 307 307 307 306 306 306 306 306 306 306 306 306 306 306 306 306 306 306 306 306 306 306 305 305 304 303 301 300 299 298 298 299 299 300 300 300 300 300 300 300 300 300 299 298 296 295 293 290 288 286 284 283 281 280 279 278 277 276 276 276 275 275 274 274 273 273 272 272
306 307 307 308 308 308 308 308 308 308 308 308 308 307 307 307 307 307 307 307 307 307 306 306 306 306 306 306 306 307 307 307 307 307 307 307 307 307 307 307 306 305 304 302 301 299 298 298 298 299 299 300 300 301 301 300 300 300 300 299 298 297 296 294 292 290 288 286 284 283 282 281 280 280 279 279 279 279 278 278 277 277 276 276 275 274
307 307 308 308 308 308 308 308 308 308 308 308 308 308 307 307 307 307 307 307 307 307 307 306 306 306 306 306 307 307 307 307 307 307 307 308 308 308 308 307 307 305 304 302 300 298 298 298 298 298 299 300 301 301 301 301 301 301 300 299 298 296 295 293 290 288 287 285 284 283 282 282 281 281 281 281 281 280 280 280 279 279 279 278 277 277
307 307 308 308 308 308 308 308 308 308 308 308 308 307 307 307 307 307 307 307 307 307 307 307 306 307 307 307 307 307 307 308 308 308 308 309 309 309 308 308 307 305 303 301 299 298 297 297 297 298 299 300 301 301 301 301 301 301 300 299 298 297 294 292 289 287 286 285 284 283 282 282 282 282 281 281 281 281 281 280 280 280 279 279 279 278
307 307 308 308 308 308 308 308 308 308 308 308 307 307 307 307 307 307 307 307 307 307 307 307 307 307 307 307 308 308 308 308 308 309 309 309 309 309 309 308 307 305 303 300 298 297 296 297 297 298 299 300 301 301 302 302 302 302 301 300 299 295 292 290 289 287 285 284 283 283 282 282 282 281 281 281 281 281 281 280 280 280 280 279 279 279
307 307 307 308 308 308 308 308 308 308 308 307 307 307 307 308 307 307 307 307 307 307 307 307 307 308 308 308 308 309 309 309 309 309 309 310 310 310 309 308 307 305 303 300 297 296 296 296 297 298 299 300 301 301 302 303 303 302 302 301 299 295 291 289 288 286 284 283 283 282 282 281 281 281 281 281 281 280 280 280 280 280 280 280 280 280
307 307 307 308 308 308 308 308 308 308 308 308 308 308 308 308 308 307 307 307 307 307 307 308 308 308 309 309 309 309 309 310 310 310 310 310 310 310 309 308 307 305 302 299 297 295 295 296 297 298 299 300 301 301 302 303 303 303 302 301 299 296 293 291 288 285 283 282 281 281 281 281 281 281 281 280 280 280 280 281 281 281 281 281 281 280
307 307 308 308 308 308 308 308 308 308 308 308 308 308 308 308 308 307 307 308 308 308 308 308 309 309 309 310 310 310 310 311 311 311 311 311 310 310 309 308 306 304 301 298 296 295 295 296 297 298 299 300 301 302 302 303 304 303 302 301 299 296 293 290 287 284 283 281 280 280 280 280 280 280 280 280 280 280 281 281 281 281 281 281 281 281
307 308 308 308 308 308 308 308 308 308 308 308 308 308 308 308 308 308 308 308 308 308 308 309 309 310 310 310 311 311 311 311 311 312 311 311 311 310 309 308 306 304 301 298 296 295 295 296 297 298 299 300 301 302 303 303 303 303 302 300 298 295 292 289 287 285 283 281 280 279 279 279 279 280 280 280 280 281 281 281 281 282 282 282 282 281
308 308 308 309 309 309 309 309 309 309 309 309 309 308 308 308 308 308 308 308 308 309 309 310 310 310 311 311 311 312 312 312 312 312 312 312 311 310 309 308 306 303 300 298 296 295 295 296 297 298 299 300 301 302 303 303 303 303 302 300 298 295 292 289 287 285 283 282 280 279 279 279 279 279 279 280 280 280 281 281 282 282 282 282 282 282
308 309 309 309 309 309 309 310 310 309 309 309 309 309 308 308 308 308 308 309 309 309 310 310 311 311 311 312 312 312 313 313 313 313 312 312 312 311 309 308 306 303 300 297 296 295 295 296 297 298 299 300 301 302 302 303 302 302 301 299 297 295 292 290 288 286 284 282 281 280 279 279 279 279 279 280 280 280 281 282 282 282 282 282 282 283
309 309 309 310 310 310 310 310 310 310 310 309 309 309 308 308 308 308 308 309 309 310 310 311 311 312 312 312 313 313 313 313 313 313 313 312 312 311 309 308 305 303 300 298 296 295 296 296 297 298 299 299 300 301 302 302 302 301 300 298 297 295 292 290 288 287 285 283 282 281 281 280 280 280 281 281 281 281 282 282 283 283 283 283 283 284
310 310 310 310 310 311 311 311 310 310 310 309 309 309 308 308 308 308 309 309 310 310 311 312 312 312 313 313 313 313 314 314 314 314 313 313 312 310 309 307 305 303 300 298 297 296 296 297 298 299 299 299 300 301 301 301 301 300 299 298 297 295 293 291 289 288 286 285 284 283 283 282 282 283 283 283 283 283 283 283 284 284 284 284 284 284